IGO011 VIDP-OEJN

Flight info

Callsign IGO011
Flight time N/A
Altitude 36000
Route DUDUM6B DUDUM A474 NIKOT Q5 UUD J61 LAXOM L639 RASKI/N0463F380 DCT KIPOL L444 TOLDA DCT PEKEM DCT MEDPO DCT ITRUX Y511 ASMIS T218 IMGUT DCT VEMEM
Aircraft A20N/M-SDE2E3FGHIRWXY/LB1

Departure

Time 2026-05-06 05:07
Airport Indira Gandhi International Airport (VIDP)

Arrival

Time N/A
Airport King Abdulaziz International Airport (OEJN)
Time Latitude Longitude Altitude Speed Heading
2026-05-06 04:48 28.56251 77.08896 775 ft 0 kts 13°
2026-05-06 04:50 28.56242 77.08894 775 ft 0 kts 12°
2026-05-06 04:51 28.56228 77.08890 775 ft 2 kts 13°
2026-05-06 04:51 28.56211 77.08886 774 ft 2 kts 14°
2026-05-06 04:51 28.56195 77.08881 774 ft 2 kts 15°
2026-05-06 04:52 28.56180 77.08875 774 ft 2 kts 23°
2026-05-06 04:52 28.56168 77.08863 774 ft 2 kts 84°
2026-05-06 04:52 28.56168 77.08854 774 ft 1 kts 102°
2026-05-06 04:54 28.56167 77.08861 774 ft 3 kts 103°
2026-05-06 04:54 28.56159 77.08893 774 ft 6 kts 106°
2026-05-06 04:54 28.56146 77.08948 774 ft 8 kts 104°
2026-05-06 04:55 28.56132 77.09011 774 ft 8 kts 105°
2026-05-06 04:55 28.56118 77.09072 774 ft 8 kts 105°
2026-05-06 04:55 28.56103 77.09131 774 ft 8 kts 107°
2026-05-06 04:55 28.56090 77.09190 774 ft 8 kts 104°
2026-05-06 04:56 28.56075 77.09255 774 ft 9 kts 105°
2026-05-06 04:56 28.56058 77.09329 774 ft 11 kts 105°
2026-05-06 04:56 28.56034 77.09431 774 ft 15 kts 105°
2026-05-06 04:56 28.56006 77.09552 774 ft 15 kts 104°
2026-05-06 04:57 28.55980 77.09663 774 ft 14 kts 104°
2026-05-06 04:57 28.55956 77.09767 774 ft 13 kts 107°
2026-05-06 04:57 28.55935 77.09858 774 ft 11 kts 104°
2026-05-06 04:57 28.55917 77.09941 774 ft 10 kts 104°
2026-05-06 04:58 28.55900 77.10014 774 ft 9 kts 104°
2026-05-06 04:58 28.55886 77.10076 774 ft 8 kts 107°
2026-05-06 04:58 28.55871 77.10128 774 ft 6 kts 109°
2026-05-06 04:58 28.55858 77.10170 774 ft 6 kts 108°
2026-05-06 04:59 28.55846 77.10230 774 ft 10 kts 102°
2026-05-06 04:59 28.55835 77.10303 774 ft 7 kts 86°
2026-05-06 04:59 28.55858 77.10344 774 ft 7 kts 37°
2026-05-06 04:59 28.55931 77.10369 775 ft 15 kts 13°
2026-05-06 05:00 28.56047 77.10403 776 ft 13 kts 20°
2026-05-06 05:00 28.56078 77.10456 776 ft 9 kts 93°
2026-05-06 05:00 28.56060 77.10543 776 ft 15 kts 104°
2026-05-06 05:00 28.56038 77.10632 776 ft 21 kts 108°
2026-05-06 05:01 28.55979 77.10893 776 ft 29 kts 105°
2026-05-06 05:01 28.55935 77.11074 776 ft 24 kts 104°
2026-05-06 05:01 28.55892 77.11267 775 ft 26 kts 104°
2026-05-06 05:01 28.55849 77.11450 775 ft 20 kts 105°
2026-05-06 05:02 28.55811 77.11617 776 ft 23 kts 105°
2026-05-06 05:02 28.55768 77.11805 776 ft 26 kts 105°
2026-05-06 05:02 28.55720 77.12007 776 ft 28 kts 104°
2026-05-06 05:02 28.55679 77.12191 776 ft 21 kts 104°
2026-05-06 05:03 28.55699 77.12283 776 ft 11 kts 29°
2026-05-06 05:03 28.55746 77.12277 777 ft 0 kts 334°
2026-05-06 05:04 28.55755 77.12273 777 ft 5 kts 334°
2026-05-06 05:04 28.55813 77.12237 778 ft 14 kts 333°
2026-05-06 05:05 28.55868 77.12190 779 ft 7 kts 289°
2026-05-06 05:05 28.55870 77.12181 779 ft 0 kts 285°
2026-05-06 05:05 28.55871 77.12179 779 ft 4 kts 285°
2026-05-06 05:05 28.55905 77.12030 778 ft 43 kts 283°
2026-05-06 05:06 28.56028 77.11500 774 ft 94 kts 284°
2026-05-06 05:06 28.56233 77.10608 777 ft 137 kts 284°
2026-05-06 05:06 28.56488 77.09418 796 ft 168 kts 284°
2026-05-06 05:06 28.56783 77.08200 1273 ft 157 kts 289°
2026-05-06 05:07 28.57138 77.06949 1415 ft 171 kts 287°
2026-05-06 05:07 28.57454 77.05673 1811 ft 169 kts 285°
2026-05-06 05:07 28.57751 77.04379 2197 ft 169 kts 285°
2026-05-06 05:07 28.57945 77.03520 2450 ft 171 kts 285°
2026-05-06 05:08 28.58369 77.01635 2746 ft 198 kts 285°
2026-05-06 05:08 28.58729 77.00038 3004 ft 217 kts 285°
2026-05-06 05:08 28.59115 76.98330 3366 ft 231 kts 285°
2026-05-06 05:08 28.59534 76.96480 3502 ft 255 kts 285°
2026-05-06 05:09 28.59988 76.94474 3933 ft 267 kts 285°
2026-05-06 05:09 28.60452 76.92416 4552 ft 270 kts 286°
2026-05-06 05:09 28.60611 76.91705 4769 ft 271 kts 286°
2026-05-06 05:09 28.60992 76.88157 5798 ft 278 kts 261°
2026-05-06 05:10 28.60222 76.86131 6426 ft 284 kts 232°
2026-05-06 05:10 28.58689 76.84754 7016 ft 288 kts 206°
2026-05-06 05:10 28.56805 76.83931 7645 ft 291 kts 199°
2026-05-06 05:10 28.54860 76.83241 8267 ft 294 kts 199°
2026-05-06 05:11 28.52891 76.82555 8888 ft 298 kts 199°
2026-05-06 05:11 28.50901 76.81843 9543 ft 301 kts 200°
2026-05-06 05:11 28.48898 76.81110 10149 ft 304 kts 201°
2026-05-06 05:11 28.46870 76.80354 10742 ft 308 kts 201°
2026-05-06 05:12 28.45511 76.79842 11151 ft 311 kts 201°
2026-05-06 05:12 28.43448 76.79060 11787 ft 315 kts 202°
2026-05-06 05:12 28.40672 76.78004 12614 ft 320 kts 202°
2026-05-06 05:12 28.38543 76.77191 13221 ft 324 kts 202°
2026-05-06 05:13 28.36386 76.76367 13812 ft 328 kts 202°
2026-05-06 05:13 28.34949 76.75817 14167 ft 330 kts 202°
2026-05-06 05:13 28.32763 76.74982 14735 ft 332 kts 202°
2026-05-06 05:13 28.29843 76.73867 15519 ft 335 kts 202°
2026-05-06 05:14 28.28357 76.73275 15919 ft 336 kts 204°
2026-05-06 05:14 28.26124 76.72322 16247 ft 348 kts 205°
2026-05-06 05:14 28.23813 76.71314 16464 ft 363 kts 205°
2026-05-06 05:14 28.21416 76.70269 16684 ft 376 kts 205°
2026-05-06 05:15 28.18953 76.69201 16893 ft 390 kts 204°
2026-05-06 05:15 28.16387 76.68094 17102 ft 402 kts 204°
2026-05-06 05:15 28.13729 76.66950 17307 ft 413 kts 204°
2026-05-06 05:15 28.10998 76.65777 17506 ft 423 kts 204°
2026-05-06 05:16 28.08217 76.64584 17849 ft 429 kts 204°
2026-05-06 05:16 28.05419 76.63385 18268 ft 431 kts 204°
2026-05-06 05:16 28.02609 76.62178 18650 ft 433 kts 204°
2026-05-06 05:16 27.99774 76.60959 19019 ft 436 kts 204°
2026-05-06 05:17 27.96924 76.59733 19375 ft 439 kts 204°
2026-05-06 05:17 27.94068 76.58504 19745 ft 442 kts 205°
2026-05-06 05:17 27.91188 76.57265 20104 ft 444 kts 205°
2026-05-06 05:17 27.88317 76.56031 20463 ft 447 kts 205°
2026-05-06 05:18 27.85405 76.54780 20824 ft 450 kts 205°
2026-05-06 05:18 27.82454 76.53509 21187 ft 453 kts 206°
2026-05-06 05:18 27.79587 76.52033 21525 ft 451 kts 214°
2026-05-06 05:18 27.76908 76.50183 21890 ft 451 kts 218°
2026-05-06 05:19 27.74347 76.48188 22240 ft 452 kts 220°
2026-05-06 05:19 27.71761 76.46079 22580 ft 455 kts 221°
2026-05-06 05:19 27.69222 76.44000 22922 ft 458 kts 221°
2026-05-06 05:19 27.66619 76.41900 23268 ft 461 kts 220°
2026-05-06 05:20 27.63972 76.39809 23579 ft 464 kts 220°
2026-05-06 05:20 27.61301 76.37739 23869 ft 466 kts 219°
2026-05-06 05:20 27.58608 76.35683 24186 ft 468 kts 219°
2026-05-06 05:20 27.55908 76.33643 24500 ft 470 kts 219°
2026-05-06 05:21 27.53177 76.31594 24801 ft 471 kts 219°
2026-05-06 05:21 27.50452 76.29610 25100 ft 473 kts 218°
2026-05-06 05:21 27.47648 76.27642 25391 ft 475 kts 217°
2026-05-06 05:21 27.44827 76.25704 25700 ft 475 kts 217°
2026-05-06 05:22 27.41988 76.23772 25944 ft 477 kts 216°
2026-05-06 05:22 27.39143 76.21841 26183 ft 479 kts 217°
2026-05-06 05:22 27.36281 76.19900 26462 ft 480 kts 217°
2026-05-06 05:22 27.33425 76.17961 26857 ft 477 kts 217°
2026-05-06 05:23 27.30591 76.16037 27270 ft 475 kts 217°
2026-05-06 05:23 27.27764 76.14118 27655 ft 473 kts 217°
2026-05-06 05:23 27.22178 76.10329 28301 ft 471 kts 217°
2026-05-06 05:24 27.19372 76.08423 28665 ft 470 kts 217°
2026-05-06 05:24 27.16574 76.06521 29014 ft 468 kts 217°
2026-05-06 05:24 27.13800 76.04637 29386 ft 466 kts 217°
2026-05-06 05:24 27.11021 76.02750 29732 ft 465 kts 217°
2026-05-06 05:25 27.08255 76.00874 30079 ft 463 kts 218°
2026-05-06 05:25 27.05534 75.99030 30340 ft 462 kts 218°
2026-05-06 05:25 27.02780 75.97163 30570 ft 462 kts 218°
2026-05-06 05:25 27.00023 75.95296 30810 ft 462 kts 218°
2026-05-06 05:26 26.97273 75.93435 31038 ft 461 kts 218°
2026-05-06 05:26 26.94522 75.91574 31270 ft 461 kts 218°
2026-05-06 05:26 26.91783 75.89723 31502 ft 460 kts 218°
2026-05-06 05:26 26.89032 75.87864 31731 ft 460 kts 218°
2026-05-06 05:27 26.86289 75.86013 31960 ft 459 kts 219°
2026-05-06 05:27 26.83512 75.84212 32169 ft 463 kts 214°
2026-05-06 05:27 26.80562 75.82724 32355 ft 469 kts 210°
2026-05-06 05:27 26.77507 75.81375 32556 ft 470 kts 208°
2026-05-06 05:28 26.74441 75.80104 32754 ft 471 kts 208°
2026-05-06 05:28 26.71396 75.78871 32935 ft 471 kts 208°
2026-05-06 05:28 26.68305 75.77624 33121 ft 471 kts 208°
2026-05-06 05:28 26.65226 75.76371 33294 ft 470 kts 208°
2026-05-06 05:29 26.62160 75.75111 33468 ft 470 kts 208°
2026-05-06 05:29 26.59100 75.73841 33639 ft 470 kts 209°
2026-05-06 05:29 26.56034 75.72558 33803 ft 469 kts 209°
2026-05-06 05:29 26.52985 75.71276 33957 ft 469 kts 209°
2026-05-06 05:30 26.49931 75.69988 34098 ft 469 kts 209°
2026-05-06 05:30 26.46875 75.68698 34236 ft 468 kts 209°
2026-05-06 05:30 26.43821 75.67409 34379 ft 468 kts 209°
2026-05-06 05:30 26.40784 75.66126 34531 ft 467 kts 209°
2026-05-06 05:31 26.37740 75.64842 34673 ft 466 kts 209°
2026-05-06 05:31 26.34712 75.63565 34807 ft 466 kts 209°
2026-05-06 05:31 26.31677 75.62285 34938 ft 465 kts 209°
2026-05-06 05:31 26.28648 75.61009 35055 ft 465 kts 209°
2026-05-06 05:32 26.25618 75.59734 35193 ft 464 kts 209°
2026-05-06 05:32 26.22634 75.58479 35315 ft 464 kts 209°
2026-05-06 05:32 26.19619 75.57211 35432 ft 463 kts 209°
2026-05-06 05:32 26.16598 75.55942 35563 ft 463 kts 209°
2026-05-06 05:33 26.13585 75.54676 35675 ft 462 kts 209°
2026-05-06 05:33 26.10574 75.53412 35792 ft 462 kts 209°
2026-05-06 05:33 26.04557 75.50886 35903 ft 464 kts 209°
2026-05-06 05:34 25.98522 75.48354 35915 ft 466 kts 209°
2026-05-06 05:34 25.92448 75.45806 35909 ft 464 kts 211°
2026-05-06 05:35 25.86986 75.42333 35917 ft 442 kts 229°
2026-05-06 05:35 25.82746 75.37513 35919 ft 433 kts 236°
2026-05-06 05:36 25.78828 75.32419 35917 ft 433 kts 237°
2026-05-06 05:36 25.74920 75.27358 35920 ft 434 kts 236°
2026-05-06 05:37 25.70918 75.22315 35919 ft 435 kts 236°
2026-05-06 05:37 25.66900 75.17339 35917 ft 435 kts 236°
2026-05-06 05:38 25.62833 75.12334 35917 ft 436 kts 235°
2026-05-06 05:38 25.58767 75.07336 35919 ft 436 kts 235°
2026-05-06 05:39 25.54728 75.02371 35918 ft 436 kts 235°
2026-05-06 05:39 25.50663 74.97377 35917 ft 436 kts 235°
2026-05-06 05:40 25.46589 74.92377 35918 ft 436 kts 235°
2026-05-06 05:40 25.42519 74.87388 35918 ft 436 kts 235°
2026-05-06 05:41 25.38467 74.82425 35920 ft 436 kts 235°
2026-05-06 05:41 25.34390 74.77440 35924 ft 436 kts 235°
2026-05-06 05:42 25.30328 74.72476 35925 ft 437 kts 235°
2026-05-06 05:42 25.26245 74.67493 35926 ft 437 kts 235°
2026-05-06 05:43 25.22155 74.62507 35928 ft 437 kts 235°
2026-05-06 05:43 25.18067 74.57528 35934 ft 437 kts 235°
2026-05-06 05:44 25.14002 74.52582 35928 ft 437 kts 235°
2026-05-06 05:44 25.09914 74.47605 35932 ft 437 kts 235°
2026-05-06 05:45 25.05828 74.42629 35932 ft 437 kts 235°
2026-05-06 05:45 25.01736 74.37652 35935 ft 438 kts 235°